www.pogodaiklimat.ru

Погода и климат >> Архив погоды >> Россия >> Свердловская область >> Ирбит


ПОГОДА в Ирбите

  • Прогноз погоды в Ирбите
  • Монитор погоды в Ирбите
  • Климат города

АРХИВ ПОГОДЫ в Ирбите

Время (UTC), дата Ветер
(напр.,м/с)
 
Видим.   Явления Облачность Т
(С)
Тd
(С)
f
(%)
Тe
(С)
Тes
(С)
Комфортность P
(гПа)
Po
(гПа)
Тmin
(С)
Tmax
(С)
R
(мм)
R24
(мм)
S
(см)
03 14.05 СЗ 3 50 км 3/0
[Ci sp]
+12.3 -4.9 30 +11 +15 1009.6 1000.7 +4.7
06 14.05 СЗ 6-11
{12}
50 км 8/4 600 м
[Cu med, cong Ci]
+14.5 -3.8 28 +13 +16 1009.8 1001.0
09 14.05 С 7-12
{14}
50 км 8/5 600 м
[Cu med, cong Ci]
+13.2 -4.4 29 +11 +13 1012.8 1003.9
12 14.05 С 5-10
{13}
50 км 8/4 600 м
[Cu med, cong Cc]
+12.0 -6.2 27 +10 +12 1014.7 1005.7
15 14.05 С 5
{11}
50 км 3/0
[Ci]
+10.3 -6.1 31 +8 +8 1015.9 1006.9 +14.6
18 14.05 штиль 0 50 км 8/4 600 м
[Sc Ac trans Ci fib]
+4.5 -2.9 59 +4 +4 1016.8 1007.6
21 14.05 Ю 1 50 км 9/8 600 м
[Sc Ac trans Ci sp]
+3.9 -1.6 67 +3 +3 1017.6 1008.3
00 15.05 СЗ 1 50 км 8/3 600 м
[Sc Ac trans Ci sp]
+2.0 -3.9 65 +1 +1 1017.6 1008.3
03 15.05 З 2 50 км 6/0
[Cs]
+5.3 -4.2 50 +3 +7 1016.3 1007.1 +0.9
06 15.05 З 3 50 км 8/1 600 м
[Cu med, cong Ac trans Ci sp]
+9.0 -5.5 35 +7 +13 1013.5 1004.4
09 15.05 СЗ 5
{12}
50 км 10/6 600 м
[Sc As op]
+11.5 -6.0 29 +10 +10 1011.6 1002.6
12 15.05 ЮВ 1
{11}
50 км {ливн. осадки} 10/10 600 м
[Cb calv]
+12.3 -2.4 36 +13 +13 1008.8 999.9
15 15.05 СЗ 3-12
{12}
20 км в посл. час ливневой дождь 8/4 600 м
[Cb calv Ac trans Ci sp]
+10.3 +2.6 59 +9 +9 1007.6 998.7 +12.9 0.0
18 15.05 СЗ 5
{20}
30 км в посл. час ливневой дождь 8/8 600 м
[Cb calv]
+3.5 +1.5 87 -2 -2 1012.4 1003.2
21 15.05 С 4 30 км {ливн. осадки} 10/10 600 м
[Cb calv]
+3.4 +1.7 89 -1 -1 1015.2 1006.0
00 16.05 С 5
{10}
20 км {ливн. осадки} 9/9 600 м
[Cb calv]
+2.0 -0.7 82 -4 -4 1018.1 1008.8
03 16.05 С 3 50 км 10/10 600 м
[]
+2.8 -0.8 77 -1 -1 1019.8 1010.5 +1.9 0.8
06 16.05 С 4 50 км 9/9 600 м
[Cb calv]
+4.7 -5.4 48 +1 +2 1020.9 1011.7
09 16.05 С 4
{11}
50 км 9/9 600 м
[Cb calv]
+7.0 -8.7 32 +4 +5 1021.4 1012.3
12 16.05 С 3
{10}
50 км 9/9 600 м
[Sc]
+7.3 -8.8 31 +5 +6 1022.0 1012.8
15 16.05 С 3 50 км 8/5 600 м
[Sc Ci fib]
+6.4 -8.6 33 +4 +4 1022.1 1012.9 +7.8
18 16.05 Ю 1 50 км ясно +2.3 -7.3 49 +1 +1 1021.7 1012.4
21 16.05 Ю 1 50 км ясно -1.3 -7.1 65 -3 -3 1021.8 1012.4
00 17.05 ЮЗ 1 50 км 8/3 600 м
[Sc Ac trans Cs]
-2.7 -5.8 79 -5 -5 1020.5 1011.0
03 17.05 ЮЗ 3 50 км 8/4 600 м
[Sc Ci sp]
+6.1 -5.2 44 +4 +6 1018.6 1009.4 -3.0
06 17.05 ЮЗ 4
{10}
50 км 9/0
[Ac trans Cs]
+10.7 -4.6 34 +9 +15 1016.2 1007.2
09 17.05 СЗ 5
{11}
50 км 3/1 600 м
[Cu hum Ci sp]
+14.8 -7.4 21 +14 +20 1014.1 1005.2
12 17.05 СЗ 5
{10}
50 км 1/0
[Ci sp]
+16.4 -8.6 17 +16 +19 1012.4 1003.6
15 17.05 З 1 50 км 4/0
[Ac trans Ci sp]
+16.7 -5.8 21 +18 +18 1010.9 1002.1 +17.3
18 17.05 ЮЗ 2 50 км 8/3 600 м
[Sc Ac trans Ci fib]
+9.8 -3.3 40 +9 +9 1011.0 1002.0
21 17.05 ЮЗ 2 50 км 6/0
[Ac trans Ci sp]
+8.3 -5.4 37 +7 +7 1010.3 1001.3
00 18.05 Ю 1 50 км 8/0
[Ac trans Cc]
+4.9 -4.8 49 +4 +4 1010.3 1001.2
03 18.05 СВ 7-10
{10}
50 км 9/5 600 м
[Sc Ac trans Ci sp]
+6.7 -0.3 61 +2 +3 1014.4 1005.3 +4.5
06 18.05 СВ 5
{11}
50 км в посл. час ливневой дождь 9/9 600 м
[Cb calv]
+6.1 -1.5 58 +2 +3 1018.6 1009.4
09 18.05 СВ 4
{10}
50 км 1/1 600 м
[Cu hum]
+9.3 -7.5 30 +7 +15 1020.1 1011.0
12 18.05 СВ 3 50 км 1/0
[Ci sp]
+10.3 -9.1 25 +9 +14 1021.6 1012.5
15 18.05 СВ 3 50 км 3/0
[Ci sp]
+8.6 -8.7 28 +7 +7 1022.5 1013.4 +10.7 0.0
18 18.05 ЮВ 3 50 км 3/0
[Ci sp]
+3.4 -7.1 46 0 0 1024.0 1014.7
21 18.05 ЮВ 4 50 км 9/0
[Cs]
+2.3 -8.4 45 -2 -2 1024.7 1015.3
00 19.05 Ю 4 50 км 9/0
[Ac trans Cs]
+2.0 -8.4 46 -2 -2 1024.6 1015.3
03 19.05 Ю 6-10
{10}
50 км 9/0
[Ac trans Cs]
+6.7 -8.7 32 +3 +4 1023.9 1014.7 +1.3
06 19.05 Ю 6-11
{12}
50 км 8/6 600 м
[Cb calv Ac trans Ci sp]
+9.0 -8.6 28 +6 +8 1022.3 1013.1
09 19.05 Ю 4
{11}
50 км слабый дождь 10/10 600 м
[Sc]
+5.2 +0.8 73 +1 +1 1021.2 1012.0
12 19.05 ЮВ 4 50 км {дождь} 9/8 600 м
[Cb calv Ac trans]
+9.1 +1.4 59 +7 +7 1018.1 1009.0
15 19.05 ЮВ 4 20 км 9/8 600 м
[Sc Ac trans]
+12.3 -3.4 33 +11 +11 1015.0 1006.0 +13.9 3
18 19.05 Ю 3 30 км 8/8 600 м
[Cb calv]
+11.8 -0.8 42 +11 +11 1013.7 1004.8
21 19.05 Ю 2 30 км 9/8 600 м
[Sc Ac trans]
+12.4 +1.6 48 +12 +12 1010.8 1001.9
00 20.05 Ю 2 50 км {дождь} 9/8 600 м
[Sc Ac trans Ci fib]
+10.5 +5.9 73 +9 +9 1009.9 1001.0
03 20.05 ЮЗ 5 50 км {ливн. осадки} 3/0
[Ci sp]
+17.1 +8.9 58 +16 +19 1008.2 999.5 +10.3 0.0
06 20.05 ЮЗ 5 50 км {ливн. осадки} 5/3 600 м
[Cu med, cong Ci sp]
+24.9 +9.9 39 +26 +30 жарко 1006.9 998.5
09 20.05 ЮЗ 6-12
{12}
50 км 9/8 600 м
[Cb calv Ci sp]
+27.7 +5.8 25 +27 +28 жарко 1005.2 996.8
12 20.05 ЮЗ 5
{25}
50 км {гроза, ливн. осадки} 8/6 600 м
[Cb calv Ci ing]
+18.2 +13.0 72 +18 +19 1006.3 997.7
15 20.05 З 5-11
{25}
20 км гроза, ливневой дождь 10/10 600 м
[Cb calv]
+15.7 +11.8 78 +15 +15 1007.0 998.2 +28.0 7
18 20.05 ЮЗ 2
{11}
50 км {гроза, ливн. осадки} 8/6 600 м
[Cb calv Ac trans Ci sp]
+13.0 +10.9 87 +12 +12 1007.6 998.8
21 20.05 ЮЗ 2 н/о н/о +13.4 +11.6 89 +13 +13 1008.5 999.7

 

Местоположение метеостанции Ирбит (Свердловская область, Россия): широта 57.62 долгота 62.97 высота над уровнем моря 74 м.

В архиве по умолчанию представлена погода в Ирбите за последнюю неделю. Архивные данные за месяц целиком и за предыдущие месяцы, начиная с января 2011 года, Вы можете получить, выбрав интересующий диапазон дат из раскрывающегося списка и нажав кнопку "Ввод!".


*Определитесь, кто Вы:
робот инопланетянин человек

Внимание! Время в таблицах - всемирное. Для получения местного времени необходимо прибавить поправку, которая в Ирбите равна 5 ч.

Смотрите также архив погоды в соседних городах и на ближайших метеорологических станциях:

Погода в Туринске (Свердловская область, Россия) (64 км)
Погода в Артемовском (Свердловская область, Россия) (69 км)
Погода в Алапаевске (Свердловская область, Россия) (80 км)
Погода в Камышлове (Свердловская область, Россия) (87 км)
Погода в Тугулыме (Свердловская область, Россия) (119 км)
Погода в Таборах (Свердловская область, Россия) (135 км)
Погода в Тавде (Свердловская область, Россия) (145 км)
Погода в Каменск-Уральском (Свердловская область, Россия) (148 км)
Погода в Далматово (Курганская область, Россия) (150 км)
Погода в Верхнем Дуброво (Свердловская область, Россия) (151 км)

Пояснения к столбцам:

Ветер - указаны скорость ветра в м/с - средняя за 10 мин, порывы в срок и между сроками (в фигурных скобках) и направление, откуда дует ветер: С - северный, СВ - северо-восточный, В - восточный, ЮВ - юго-восточный, Ю - южный, ЮЗ - юго-западный, З - западный, СЗ - северо-западный.
Видимость - горизонтальная дальность видимости в метрах или километрах. При видимости от 1 до 10 км при отсутствии осадков обычно наблюдается дымка, при ухудшении видимости до 1 км и менее - туман. В сухую погоду видимость может ухудшаться дымом, пылью или мглою.
Явления - указаны атмосферные явления, наблюдавшиеся в срок или в последний час перед сроком; фигурными скобками обозначены явления, наблюдавшиеся между сроками (за 1-3 часа до срока); квадратными скобками обозначены град или гололедные отложения с указанием их диаметра в мм.
Облачность - указаны через наклонную черту общая и нижняя облачность в баллах и высота нижней границы облаков в метрах; квадратными скобками обозначены формы облаков: Ci - перистые, Cs - перисто-слоистые, Cc - перисто-кучевые, Ac - высококучевые, As - высокослоистые, Sc - слоисто-кучевые, Ns - слоисто-дождевые, Cu - кучевые, Cb - кучево-дождевые. Подробнее классификацию облаков см. в Атласе облаков (PDF).
T - Температура воздуха - температура, измеренная на высоте 2 м над землей.
Td - Температура точки росы - температура, при понижении до которой содержащийся в воздухе водяной пар достигнет насыщения.
f - Относительная влажность воздуха - влажноcть воздуха, измеренная на высоте 2 м над землей.
Te - Эффективная температура - температура, которую ощущает одетый по сезону человек в тени. Характеристика душности погоды. При расчете учитывается влияние влажности воздуха и скорости ветра на теплоощущения человека.
Tes - Эффективная температура на солнце - температура, которую ощущает человек, с поправкой на солнечный нагрев. Характеристика знойности погоды. Зависит от высоты солнца над горизонтом, облачности и скорости ветра. Ночью, в пасмурную погоду, а также при ветре 12 м/с и более поправка равна нулю.
P - Атмосферное давление - приведенное к уровню моря атмосферное давление.
Po - Атмосферное давление - измеренное на уровне метеостанции атмосферное давление.
Tmin - Минимальная температура - минимум температуры воздуха на высоте 2 м над землей.
Tmax - Максимальная температура - максимум температуры воздуха на высоте 2 м над землей.
R - Количество осадков - Количество выпавших осадков за период времени, мм. При наведении курсора мыши на число - период времени, за который выпало указанное количество осадков.
R24 - Количество осадков - Количество выпавших осадков за 24 часа, мм.
S - Снежный покров - Высота снежного покрова, см. При наведении курсора мыши на число - состояние снежного покрова и степень покрытия местности в баллах.